Weather in Irtyshsk

Kazakhstan     53°19′58″N   75°27′31″E
temp.,
°C
wind,
m/s
gust,
m/s
humid.,
%
clouds,
%
prec.,
mm/h
press.,
hPa
HPBL,
m
14 april, wed
wed1400:000nw359678 0.0 1040148
03:00+1wnw3594100 0.0 1038313
06:00+2w349085 0.0 1038266
09:00+2wsw579473 0.0 1037289
12:00+4wsw599499 0.0 1035293
15:00+6wsw6109197 0.0 1033279
18:00+6wsw599141 0.0 1031187
21:00+4nw489898 0.0 1030197
15 april, thu
thu1500:00+2nw349731 0.0 103093
03:00+3w3395100 0.0 102962
06:00+4w3491100 0.0 102968
09:00+5sw348999 0.0 1028106
12:00+11wsw45740 0.0 1028392
15:00+13wsw55700 0.0 1026543
18:00+13wsw46720 0.0 1024430
21:00+9wsw35845 0.0 102468
16 april, fri
fri1600:00+8wsw34825 0.0 102348
03:00+7wsw45805 0.0 102159
06:00+6wsw45784 0.0 102058
09:00+10wsw57645 0.0 1020232
12:00+15wsw67525 0.0 1019604
15:00+17wsw67445 0.0 10171036
18:00+17wnw563840 0.0 10161121
21:00+10nne9137711 0.0 1017371
17 april, sat
sat1700:00+5ne7128385 0.0 1019475
03:00+4ne71277100 0.0 1019562
06:00+3ne6983100 0.0 1020545
09:00+3ene567552 0.0 1020571
12:00+6nne226380 0.0 1019950
15:00+8nw4557100 0.0 10181277
18:00+8wnw5655100 0.0 10171434
21:00+7wnw4751100 0.0 1017290
18 april, sun
sun1800:00+4w46715 0.0 1017125
03:00+3w4980100 0.0 1016187
06:00+2wnw2284100 0.0 101622
09:00+4w1274100 0.0 1016406
12:00+7w256185 0.1 10141130
15:00+10wsw71042100 0.2 10112180
18:00+6nnw91178100 0.4 1011681
21:00+3nnw1475100 1.4 1011292